GW0206 Weather Reports


time (UTC)temp
F
wind
direction
speed
knots
gust
knots
rain 1hr
in
rain 24hr
in
rain mn
in
humidity
%
barometer
mb
20260904212007 77 319 0.9 3.5 0.00 0.80 0.13 83 1014.2
20260904211530 78 41 0.9 3.5 0.00 0.80 0.13 83 1014.3
20260904211021 78 52 0.9 4.3 0.00 0.80 0.13 83 1014.4
20260904210510 78 337 1.7 4.3 0.00 0.80 0.13 82 1014.2
20260904210032 78 28 0.9 6.1 0.00 0.80 0.13 82 1014.2
20260904205519 78 50 1.7 6.1 0.00 0.80 0.13 81 1014.2
20260904205017 78 5 1.7 6.1 0.00 0.80 0.13 80 1014.3
20260904204518 79 5 2.6 4.3 0.00 0.80 0.13 82 1014.4
20260904204012 78 343 0.0 3.5 0.00 0.80 0.13 80 1014.6
20260904203511 79 355 0.0 3.5 0.00 0.80 0.13 79 1014.7
20260904203027 79 136 0.9 3.5 0.00 0.80 0.13 79 1014.9
20260904202512 79 53 1.7 3.5 0.00 0.80 0.13 82 1014.9
20260904202014 78 88 0.9 3.5 0.00 0.80 0.13 83 1015.1
20260904201530 78 149 0.0 1.7 0.00 0.80 0.13 84 1015.2
20260904201010 78 300 0.9 2.6 0.00 0.80 0.13 82 1015.1
20260904200514 78 134 0.0 3.5 0.00 0.80 0.13 84 1015.3
20260904200032 77 126 0.9 3.5 0.00 0.80 0.13 83 1015.4
20260904195517 77 49 1.7 3.5 0.00 0.80 0.13 83 1015.4
20260904195011 77 116 0.0 5.2 0.00 0.80 0.13 84 1015.6
20260904194531 77 114 1.7 5.2 0.00 0.80 0.13 85 1015.7
20260904194017 77 144 0.9 3.5 0.00 0.80 0.13 85 1015.7
20260904193519 76 34 0.0 7.8 0.00 0.80 0.13 85 1015.9
20260904193031 76 65 2.6 7.8 0.00 0.80 0.13 86 1015.8
20260904192510 76 82 1.7 3.5 0.00 0.80 0.13 87 1015.7
20260904192017 76 121 0.9 4.3 0.00 0.80 0.13 88 1015.9
20260904191525 76 57 1.7 4.3 0.00 0.80 0.13 87 1015.6
20260904191015 76 55 0.9 4.3 0.00 0.80 0.13 87 1015.4
20260904190518 76 89 1.7 4.3 0.00 0.80 0.13 86 1015.5
20260904190031 76 53 2.6 4.3 0.00 0.80 0.13 85 1015.5
20260904185512 76 75 0.9 4.3 0.00 0.80 0.13 85 1015.8
20260904185015 77 100 0.0 5.2 0.00 0.80 0.13 84 1016.0
20260904184537 77 9 1.7 6.1 0.00 0.80 0.13 83 1016.3
20260904184017 77 59 2.6 8.7 0.00 0.80 0.13 85 1016.8
20260904183516 77 99 1.7 8.7 0.00 0.80 0.13 84 1017.0
20260904183040 78 117 2.6 6.1 0.00 0.80 0.13 85 1017.2
20260904182516 78 90 2.6 6.1 0.00 0.80 0.13 85 1017.2
20260904182022 78 123 0.9 5.2 0.00 0.80 0.13 86 1017.2
20260904181545 78 155 0.0 5.2 0.00 0.80 0.13 85 1017.4
20260904181013 78 167 0.9 7.0 0.00 0.80 0.13 83 1017.8
20260904180517 78 191 0.9 7.0 0.00 0.80 0.13 86 1017.7
20260904180031 78 136 1.7 7.0 0.00 0.80 0.13 86 1017.9
20260904175516 78 96 0.9 7.0 0.00 0.80 0.13 90 1017.9
20260904175015 77 182 0.9 7.0 0.00 0.80 0.13 90 1017.9
20260904174533 77 154 0.9 6.1 0.00 0.80 0.13 91 1017.8
20260904174019 76 136 0.9 6.1 0.00 0.80 0.13 93 1017.8
20260904173517 76 125 0.9 5.2 0.00 0.80 0.13 92 1017.7
20260904173036 76 120 0.9 5.2 0.00 0.80 0.13 93 1017.7
20260904172516 75 142 0.0 5.2 0.00 0.80 0.13 93 1017.7
20260904172020 75 80 0.9 5.2 0.00 0.80 0.13 94 1017.7
20260904171539 75 123 0.0 4.3 0.00 0.80 0.13 95 1017.8
20260904171020 75 163 0.9 5.2 0.00 0.80 0.13 96 1017.8
20260904170516 74 153 2.6 5.2 0.00 0.80 0.13 97 1017.8
20260904170031 74 199 0.0 5.2 0.00 0.80 0.13 97 1017.8
20260904165512 74 174 0.0 7.0 0.00 0.80 0.13 99 1017.9
20260904165015 74 92 0.9 7.0 0.00 0.80 0.13 99 1017.9
20260904164508 73 132 2.6 7.0 0.00 0.80 0.13 99 1017.9
20260904164005 73 66 1.7 7.0 0.00 0.80 0.13 99 1017.9
20260904163502 72 135 1.7 7.0 0.00 0.80 0.13 99 1017.9
20260904163010 72 116 1.7 7.0 0.01 0.80 0.13 99 1018.1
20260904162504 71 98 2.6 6.1 0.01 0.80 0.13 99 1018.2
20260904162008 71 101 0.9 3.5 0.01 0.80 0.13 99 1018.0
20260904161516 71 78 1.7 2.6 0.02 0.80 0.13 98 1017.6
20260904161011 71 352 0.0 0.0 0.03 0.80 0.13 99 1017.6
20260904160508 71 352 0.0 2.6 0.03 0.80 0.13 98 1017.4
20260904160024 71 352 0.0 2.6 0.03 0.80 0.13 99 1017.3
20260904155512 70 317 0.0 2.6 0.03 0.80 0.13 98 1017.2
20260904155006 70 340 0.0 1.7 0.04 0.80 0.13 99 1017.2
20260904154526 70 323 0.0 3.5 0.04 0.80 0.13 98 1017.2
20260904154018 70 321 0.9 3.5 0.05 0.80 0.13 98 1017.1
20260904153517 69 295 0.9 1.7 0.05 0.80 0.13 98 1017.3
20260904153019 69 295 0.0 2.6 0.04 0.79 0.12 98 1017.3
20260904152510 69 317 0.0 2.6 0.05 0.79 0.12 98 1017.3
20260904152016 69 313 0.9 2.6 0.06 0.79 0.12 98 1017.4
20260904151520 69 259 0.0 2.6 0.06 0.78 0.11 98 1017.5
20260904151006 69 261 0.0 5.2 0.05 0.77 0.10 98 1017.4
20260904150508 69 296 2.6 5.2 0.06 0.77 0.10 98 1017.3
20260904150020 69 273 1.7 3.5 0.06 0.77 0.10 98 1017.5
20260904145507 69 101 0.0 2.6 0.06 0.77 0.10 98 1017.8
20260904145010 69 89 0.9 2.6 0.06 0.76 0.09 98 1018.0
20260904144528 69 94 0.9 2.6 0.06 0.76 0.09 98 1017.9
20260904144017 69 116 0.0 2.6 0.06 0.75 0.08 98 1017.8
20260904143509 69 116 0.0 2.6 0.08 0.75 0.08 98 1018.0
20260904143034 69 115 0.9 2.6 0.08 0.75 0.08 98 1017.8
20260904142517 69 188 0.9 2.6 0.07 0.74 0.07 98 1017.5
20260904142023 69 143 0.0 1.7 0.06 0.73 0.06 98 1017.6
20260904141523 69 144 0.0 2.6 0.05 0.72 0.05 98 1017.6
20260904141013 69 92 0.9 6.1 0.05 0.72 0.05 98 1017.6
20260904140515 69 101 1.7 6.1 0.04 0.71 0.04 98 1017.6
20260904140032 69 111 1.7 6.1 0.04 0.71 0.04 98 1017.8
20260904135515 69 105 2.6 6.1 0.04 0.71 0.04 97 1017.8
20260904135008 69 92 2.6 6.1 0.03 0.70 0.03 97 1017.7
20260904134526 69 97 2.6 7.8 0.03 0.70 0.03 97 1017.8
20260904134008 69 102 1.7 7.8 0.02 0.69 0.02 97 1017.8
20260904133513 69 117 2.6 6.1 0.00 0.67 0.00 98 1017.6
20260904133029 69 122 0.9 2.6 0.00 0.67 0.00 98 1017.4
20260904132516 69 78 0.9 3.5 0.00 0.67 0.00 98 1017.2
20260904132012 69 114 0.9 3.5 0.00 0.67 0.00 98 1017.2
20260904131531 69 96 1.7 5.2 0.00 0.67 0.00 98 1017.1
20260904131017 69 70 1.7 5.2 0.00 0.67 0.00 98 1017.3
20260904130511 69 5 0.9 3.5 0.00 0.67 0.00 99 1017.1
20260904130027 69 5 1.7 3.5 0.00 0.67 0.00 98 1017.0
20260904125514 69 5 0.0 2.6 0.00 0.68 0.00 98 1017.1
20260904125019 69 5 0.9 1.7 0.00 0.69 0.00 98 1017.2
20260904124524 69 5 0.0 1.7 0.00 0.75 0.00 98 1017.2
20260904124012 68 5 0.0 1.7 0.00 0.85 0.00 98 1017.1
20260904123515 68 5 0.9 1.7 0.00 0.88 0.00 99 1017.2
20260904123032 68 283 0.0 1.7 0.00 0.91 0.00 99 1017.1
20260904122514 68 283 0.9 2.6 0.00 0.91 0.00 98 1017.1
20260904122017 68 283 0.9 2.6 0.00 0.91 0.00 98 1017.1
20260904121530 68 283 0.9 1.7 0.00 0.91 0.00 98 1017.1
20260904121014 68 283 0.0 1.7 0.00 0.91 0.00 99 1017.1
20260904120512 68 283 0.0 0.9 0.00 0.91 0.00 99 1017.3
20260904120044 68 283 0.0 0.9 0.00 0.91 0.00 99 1017.2
20260904115518 67 283 0.0 0.9 0.00 0.91 0.00 98 1017.1
20260904115013 67 281 0.0 1.7 0.00 0.91 0.00 98 1017.1
20260904114531 67 281 0.0 1.7 0.00 0.91 0.00 98 1017.1
20260904114016 67 281 0.0 2.6 0.00 0.91 0.00 98 1016.9
20260904113516 67 264 0.9 2.6 0.00 0.91 0.00 98 1016.9
20260904113036 67 242 0.9 2.6 0.00 0.91 0.00 98 1017.0
20260904112516 67 252 0.0 3.5 0.00 0.91 0.00 98 1017.0
20260904112011 67 231 0.9 3.5 0.00 0.91 0.00 98 1017.0
20260904111529 67 224 0.9 3.5 0.00 0.91 0.00 98 1017.0
20260904111014 67 241 1.7 2.6 0.00 0.91 0.00 98 1016.7
20260904110516 67 292 0.0 1.7 0.00 0.91 0.00 98 1016.6
20260904110030 67 292 0.0 1.7 0.00 0.91 0.00 98 1016.4
20260904105505 67 292 0.9 1.7 0.00 0.91 0.00 98 1016.3
20260904105005 67 298 0.9 1.7 0.00 0.91 0.00 98 1016.2
20260904104514 67 342 0.0 1.7 0.00 0.91 0.00 98 1016.2
20260904104011 67 342 0.9 1.7 0.00 0.91 0.00 98 1016.2
20260904103502 67 304 0.0 0.9 0.00 0.91 0.00 98 1016.1
20260904103022 67 53 0.0 0.0 0.00 0.91 0.00 98 1016.3
20260904102511 67 53 0.0 0.0 0.00 0.91 0.00 98 1016.2
20260904102010 67 53 0.0 0.0 0.00 0.91 0.00 98 1016.3
20260904101513 67 53 0.0 0.0 0.00 0.91 0.00 98 1016.4
20260904101010 67 53 0.0 0.0 0.00 0.91 0.00 98 1016.3
20260904100512 67 53 0.0 0.0 0.00 0.91 0.00 98 1016.3
20260904100032 67 53 0.0 0.9 0.00 0.91 0.00 98 1016.4
20260904095508 67 53 0.0 0.9 0.00 0.91 0.00 98 1016.4
20260904095003 67 53 0.0 0.9 0.00 0.91 0.00 98 1016.4
20260904094508 67 53 0.0 1.7 0.00 0.91 0.00 98 1016.4
20260904094001 67 53 0.0 1.7 0.00 0.91 0.00 98 1016.4
20260904093506 67 53 0.0 1.7 0.00 0.91 0.00 98 1016.4
20260904093016 67 53 0.0 1.7 0.00 0.91 0.00 98 1016.3
20260904092510 67 53 0.0 1.7 0.00 0.91 0.00 98 1016.3
20260904092005 67 53 0.0 1.7 0.00 0.91 0.00 98 1016.4
20260904091521 67 53 0.0 1.7 0.00 0.91 0.00 98 1016.3
20260904091012 67 53 0.0 2.6 0.00 0.91 0.00 98 1016.2
20260904090513 67 53 0.0 3.5 0.00 0.91 0.00 98 1016.1
20260904090019 67 13 0.9 3.5 0.00 0.91 0.00 98 1016.1
20260904085511 67 32 0.9 2.6 0.00 0.91 0.00 98 1016.1
20260904085017 67 355 0.9 2.6 0.00 0.91 0.00 98 1016.2
20260904084515 67 331 0.0 1.7 0.00 0.91 0.00 98 1016.1
20260904084013 67 331 0.0 1.7 0.00 0.91 0.00 98 1016.1
20260904083515 67 331 0.0 2.6 0.00 0.91 0.00 98 1016.1
20260904083018 67 317 0.9 2.6 0.00 0.91 0.00 98 1016.0
20260904082507 67 355 0.9 2.6 0.00 0.91 0.00 98 1016.2
20260904082009 67 355 0.9 2.6 0.00 0.91 0.00 98 1016.3
20260904081530 67 343 0.0 2.6 0.00 0.91 0.00 98 1016.3
20260904081010 67 306 0.0 1.7 0.00 0.91 0.00 98 1016.2
20260904080507 67 306 0.0 0.9 0.00 0.91 0.00 98 1016.4
20260904080034 67 306 0.0 2.6 0.00 0.91 0.00 98 1016.4
20260904075514 67 306 0.0 2.6 0.00 0.91 0.00 98 1016.4
20260904075011 67 61 0.0 0.9 0.00 0.91 0.00 98 1016.4
20260904074528 67 61 0.0 2.6 0.00 0.91 0.00 98 1016.4
20260904074016 67 61 0.0 2.6 0.00 0.91 0.00 98 1016.4
20260904073514 67 46 0.9 4.3 0.00 0.91 0.00 98 1016.6
20260904073020 67 61 1.7 4.3 0.00 0.91 0.00 98 1016.7
20260904072514 67 74 0.0 1.7 0.00 0.91 0.00 98 1016.7
20260904072015 67 90 0.0 3.5 0.00 0.91 0.00 98 1016.6
20260904071542 67 128 0.9 3.5 0.00 0.91 0.00 98 1016.7
20260904071008 67 111 0.9 3.5 0.00 0.91 0.00 98 1016.8
20260904070510 67 84 0.0 2.6 0.00 0.91 0.00 98 1016.7
20260904070023 67 84 0.9 2.6 0.00 0.91 0.00 98 1016.6
20260904065509 67 19 0.9 1.7 0.00 0.91 0.00 98 1016.5
20260904065014 67 11 0.0 1.7 0.00 0.91 0.00 98 1016.3
20260904064530 67 11 0.0 2.6 0.00 0.91 0.00 98 1016.4
20260904064012 67 11 0.0 3.5 0.00 0.91 0.00 98 1016.4
20260904063510 67 346 0.9 4.3 0.00 0.91 0.00 98 1016.4
20260904063032 68 15 1.7 4.3 0.00 0.91 0.00 98 1016.4
20260904062515 68 17 1.7 4.3 0.00 0.91 0.00 98 1016.4
20260904062015 68 351 1.7 5.2 0.00 0.91 0.00 98 1016.5
20260904061528 68 360 1.7 5.2 0.00 0.91 0.00 98 1016.6
20260904061013 68 5 1.7 4.3 0.00 0.91 0.00 98 1016.7
20260904060518 68 350 0.9 3.5 0.00 0.91 0.00 98 1016.7
20260904060026 68 348 0.0 4.3 0.00 0.91 0.00 98 1016.7
20260904055510 68 12 0.9 7.0 0.00 0.91 0.00 98 1016.9
20260904055008 68 343 1.7 7.0 0.00 0.91 0.00 98 1016.8
20260904054533 68 91 0.9 4.3 0.00 0.91 0.00 98 1016.8
20260904054013 68 313 1.7 4.3 0.00 0.91 0.00 98 1016.8
20260904053515 68 306 1.7 3.5 0.00 0.91 0.00 98 1016.7
20260904053030 68 5 0.0 2.6 0.00 0.91 0.00 98 1016.8
20260904052517 68 294 0.0 3.5 0.00 0.91 0.00 98 1016.7
20260904052012 68 227 1.7 6.1 0.00 0.91 0.00 98 1016.7
20260904051532 68 12 0.9 6.1 0.00 0.91 0.00 98 1016.7
20260904051019 68 28 1.7 3.5 0.00 0.91 0.00 98 1016.7
20260904050513 67 210 0.0 0.0 0.00 0.91 0.00 98 1016.8
20260904050031 67 210 0.0 0.9 0.00 0.91 0.00 98 1016.6
20260904045503 67 210 0.0 4.3 0.00 0.91 0.00 98 1016.6
20260904045003 67 210 0.0 4.3 0.00 0.91 0.00 98 1016.7
20260904044504 67 213 0.9 7.0 0.00 0.91 0.00 98 1016.6
20260904044003 67 248 2.6 7.0 0.00 0.91 0.00 98 1016.8
20260904043503 67 207 0.9 7.0 0.00 0.91 0.00 98 1016.7
20260904043005 67 202 1.7 7.0 0.00 0.91 0.00 97 1016.7
20260904042502 67 202 3.5 6.1 0.00 0.91 0.00 97 1016.4
20260904042004 67 207 1.7 4.3 0.00 0.91 0.00 97 1016.2
20260904041505 67 64 0.9 4.3 0.00 0.91 0.00 97 1015.9
20260904041004 67 76 1.7 4.3 0.00 0.91 0.00 97 1016.0
20260904040503 67 39 1.7 4.3 0.00 0.91 0.00 97 1015.9
20260904040005 67 5 1.7 4.3 0.00 0.91 0.00 97 1016.0
20260904035503 67 13 1.7 3.5 0.00 0.91 0.91 97 1016.2
20260904035003 67 5 1.7 4.3 0.00 0.91 0.91 97 1016.1
20260904034504 67 344 1.7 4.3 0.00 0.91 0.91 97 1016.2
20260904034002 67 17 1.7 7.8 0.00 0.91 0.91 97 1016.2
20260904033504 67 17 2.6 7.8 0.00 0.91 0.91 97 1016.3
20260904033038 67 33 1.7 6.1 0.01 0.91 0.91 97 1016.3
20260904032503 67 342 2.6 7.0 0.01 0.91 0.91 97 1016.4
20260904032003 67 360 1.7 7.0 0.01 0.91 0.91 97 1016.4
20260904031504 67 15 1.7 7.0 0.01 0.91 0.91 97 1016.4
20260904031003 67 19 2.6 5.2 0.01 0.91 0.91 97 1016.5
20260904030503 67 11 1.7 5.2 0.01 0.91 0.91 97 1016.7
20260904030004 67 13 2.6 5.2 0.01 0.91 0.91 97 1016.7
20260904025504 67 30 1.7 6.1 0.01 0.91 0.91 97 1016.7
20260904025002 67 336 1.7 7.0 0.01 0.91 0.91 97 1016.7
20260904024504 67 22 1.7 7.8 0.01 0.91 0.91 97 1016.7
20260904024005 68 12 2.6 7.8 0.01 0.91 0.91 97 1016.7
20260904023504 68 360 0.9 7.8 0.01 0.91 0.91 97 1016.8
20260904023006 68 17 2.6 7.8 0.00 0.90 0.90 97 1016.8
20260904022506 67 355 1.7 4.3 0.00 0.90 0.90 97 1016.9
20260904022003 67 355 0.9 4.3 0.00 0.90 0.90 97 1016.9
20260904021504 67 309 0.9 5.2 0.00 0.90 0.90 97 1016.9
20260904021005 67 302 1.7 5.2 0.00 0.90 0.90 97 1016.7
20260904020504 67 333 1.7 4.3 0.00 0.90 0.90 97 1016.6
20260904020004 67 326 0.9 4.3 0.00 0.90 0.90 97 1016.7
20260904015504 67 318 0.9 4.3 0.00 0.90 0.90 97 1016.7
20260904015004 67 299 0.9 5.2 0.00 0.90 0.90 97 1016.6
20260904014504 67 360 1.7 5.2 0.00 0.90 0.90 97 1016.7
20260904014007 67 338 1.7 4.3 0.00 0.90 0.90 97 1016.7
20260904013505 67 319 1.7 4.3 0.00 0.90 0.90 97 1016.5
20260904013005 67 336 1.7 4.3 0.00 0.90 0.90 96 1016.4
20260904012504 67 314 1.7 4.3 0.00 0.90 0.90 96 1016.3
20260904012005 67 302 1.7 3.5 0.00 0.90 0.90 96 1016.4
20260904011514 67 286 0.0 3.5 0.00 0.90 0.90 96 1016.3
20260904011003 67 294 0.9 3.5 0.00 0.90 0.90 96 1016.4
20260904010504 67 294 1.7 3.5 0.00 0.90 0.90 96 1016.5
20260904010010 67 311 0.9 3.5 0.00 0.90 0.90 96 1016.7
20260904005506 67 279 1.7 6.1 0.00 0.90 0.90 96 1016.6
20260904005003 67 289 1.7 6.1 0.00 0.90 0.90 96 1016.7
20260904004510 67 281 2.6 5.2 0.01 0.90 0.90 96 1017.0
20260904004005 67 263 1.7 5.2 0.02 0.90 0.90 96 1017.1
20260904003506 68 302 1.7 4.3 0.03 0.90 0.90 96 1017.2
20260904003012 68 333 1.7 4.3 0.04 0.90 0.90 96 1017.3
20260904002505 68 252 1.7 7.8 0.09 0.90 0.90 96 1017.3
20260904002004 68 234 2.6 7.8 0.16 0.90 0.90 95 1017.2
20260904001508 68 225 2.6 7.0 0.21 0.90 0.90 95 1017.3
20260904001006 68 238 2.6 8.7 0.30 0.90 0.90 95 1017.4
20260904000505 68 222 1.7 8.7 0.40 0.90 0.90 95 1017.3
20260904000010 68 241 3.5 10.4 0.47 0.90 0.90 95 1017.2
20260903235504 68 198 4.3 11.3 0.47 0.90 0.90 95 1017.3
20260903235004 68 241 5.2 13.9 0.47 0.90 0.90 95 1017.2
20260903234506 68 222 5.2 13.0 0.46 0.89 0.89 94 1017.4
20260903234005 68 227 6.1 13.0 0.45 0.88 0.88 94 1017.8
20260903233505 68 194 5.2 13.0 0.52 0.87 0.87 94 1018.1
20260903233010 69 194 5.2 10.4 0.58 0.86 0.86 94 1018.4
20260903232503 69 219 2.6 11.3 0.57 0.81 0.81 93 1018.9
20260903232003 69 244 2.6 18.2 0.50 0.74 0.74 93 1019.3
20260903231514 70 198 7.8 19.1 0.45 0.69 0.69 91 1018.5
20260903231002 71 224 11.3 22.6 0.36 0.60 0.60 90 1017.9
20260903230506 73 197 12.2 29.5 0.26 0.50 0.50 88 1018.2
20260903230013 75 139 7.8 29.5 0.19 0.43 0.43 90 1017.6
20260903225505 76 261 1.7 6.1 0.19 0.43 0.43 89 1016.2
20260903225003 77 246 0.9 7.0 0.19 0.43 0.43 88 1016.0
20260903224525 77 204 0.9 7.0 0.19 0.43 0.43 87 1015.7
20260903224003 79 275 4.3 6.1 0.19 0.43 0.43 84 1015.2
20260903223503 80 283 1.7 6.1 0.11 0.35 0.35 82 1015.6
20260903223012 81 263 0.9 6.1 0.04 0.28 0.28 80 1015.1
20260903222506 81 234 3.5 6.1 0.00 0.24 0.24 77 1014.9
20260903222008 81 257 2.6 4.3 0.00 0.24 0.24 77 1015.0
20260903221515 82 221 1.7 3.5 0.00 0.24 0.24 77 1015.0
20260903221003 82 309 0.0 6.1 0.00 0.24 0.24 76 1015.0
20260903220503 82 252 1.7 6.1 0.00 0.24 0.24 76 1014.7
20260903220023 83 238 1.7 5.2 0.00 0.24 0.24 75 1014.7
20260903215504 83 217 1.7 5.2 0.00 0.24 0.24 74 1014.7
20260903215004 84 230 1.7 6.1 0.00 0.24 0.24 73 1014.6
20260903214516 85 215 1.7 6.1 0.00 0.24 0.24 72 1014.9
20260903214007 86 229 1.7 5.2 0.00 0.24 0.24 71 1014.7
20260903213506 86 182 2.6 5.2 0.00 0.24 0.24 70 1014.7
20260903213022 87 261 0.0 6.1 0.00 0.24 0.24 68 1014.7
20260903212505 88 188 1.7 6.1 0.00 0.24 0.24 66 1014.4